Location: Bellflower
(33.8817°N, 118.1170°W)
Time: 13:05:55
(UTC+00:00)

Cosmos 1862 - Pass Details

Date: 23 November 2020
Orbit: 537 x 556 km, 82.5° (Epoch: 21 January)

Event Time Altitude Azimuth Distance (km) Brightness Sun altitude
Rises 13:47:36 0° 174° (S) 2,710 7.2 -9.6°
Reaches altitude 10° 13:49:47 10° 169° (S) 1,823 6.4 -9.1°
Maximum altitude 13:53:40 51° 93° (E) 703 4.4 -8.4°
Drops below altitude 10° 13:57:37 10° 18° (NNE) 1,843 6.0 -7.6°
Sets 13:59:50 0° 13° (NNE) 2,743 6.8 -7.2°
